Weather History for Fayetteville, AR

Change the Weather History Date:

Sunday, January 27, 2013

  Actual Average Record
Temperature  
Mean Temperature 52 °F 36 °F  
Max Temperature 58 °F 47 °F 72 °F (1975)
Min Temperature 46 °F 25 °F 1 °F (1963)
Degree Days  
Heating Degree Days 13 29  
Month to date heating degree days 749 801  
Since 1 July heating degree days 2267 2484  
Growing Degree Days 2 (Base 50)    
Moisture  
Dew Point 47 °F    
Average Humidity 75    
Maximum Humidity 89    
Minimum Humidity 60    
Precipitation  
Precipitation 0.01 in 0.08 in 1.15 in (2009)
Month to date precipitation 0.35 2.48  
Year to date precipitation 0.35 2.48  
Sea Level Pressure  
Sea Level Pressure 30.03 in    
Wind  
Wind Speed 12 mph (South)    
Max Wind Speed 24 mph    
Max Gust Speed 30 mph    
Visibility 10 miles    
Events Rain    
T = Trace of Precipitation, MM = Missing Value Source: NWS Daily Summary

Daily Weather History Graph

Daily Weather History Graph

Search for Another Location

Airport:

Trip Planner

Search our weather history database for the weather conditions in past years. The results will help you decide how hot, cold, wet, or windy it might be!

Date:

Astronomy

Jan. 27, 2013 Rise Set
Actual Time 7:20 AM CST 5:38 PM CST
Civil Twilight 6:53 AM CST 6:05 PM CST
Nautical Twilight 6:22 AM CST 6:36 PM CST
Astronomical Twilight 5:52 AM CST 7:07 PM CST
Moon 6:30 PM CST (1/27) 7:16 AM CST (1/27)
Length of Visible Light 11h 12m
Length of Day
10h 17m
Full, 100% of the Moon is Illuminated
Jan 27
Full
Feb 3
Last Quarter
Feb 10
New
Feb 17
First Quarter
Feb 25
Full

Hourly Weather History & Observations

Time (CST) Temp. Windchill Dew Point Humidity Pressure Visibility Wind Dir Wind Speed Gust Speed Precip Events Conditions
12:37 AM 46.4 °F 44.3 °F 35.6 °F 66% 30.13 in 10.0 mi SSE 4.6 mph - N/A   Overcast
12:46 AM 46.4 °F 42.9 °F 35.6 °F 66% 30.13 in 10.0 mi South 6.9 mph 16.1 mph N/A   Overcast
12:53 AM 46.9 °F - 36.0 °F 66% 30.13 in 10.0 mi SSE 8.1 mph - N/A   Overcast
1:53 AM 46.9 °F - 37.0 °F 68% 30.12 in 10.0 mi SSE 5.8 mph - N/A   Overcast
2:53 AM 48.0 °F - 39.9 °F 74% 30.11 in 10.0 mi SSE 5.8 mph - N/A   Overcast
3:53 AM 48.0 °F - 41.0 °F 77% 30.10 in 10.0 mi SSE 6.9 mph - N/A   Overcast
4:40 AM 48.2 °F - 41.0 °F 76% 30.07 in 10.0 mi SSE 5.8 mph - N/A   Overcast
4:53 AM 46.9 °F - 41.0 °F 80% 30.07 in 10.0 mi SSE 10.4 mph - N/A   Overcast
5:13 AM 46.4 °F 40.4 °F 41.0 °F 81% 30.07 in 10.0 mi South 13.8 mph - N/A   Overcast
5:53 AM 46.9 °F - 42.1 °F 83% 30.06 in 8.0 mi SSE 5.8 mph - N/A   Overcast
6:53 AM 48.0 °F - 44.1 °F 86% 30.07 in 7.0 mi South 5.8 mph - N/A   Overcast
7:53 AM 50.0 °F - 46.9 °F 89% 30.07 in 6.0 mi South 13.8 mph - N/A   Overcast
8:53 AM 48.9 °F - 46.9 °F 93% 30.08 in 7.0 mi SSW 8.1 mph - 0.00 in Rain Light Rain
9:29 AM 50.0 °F - 46.4 °F 87% 30.07 in 8.0 mi South 8.1 mph - 0.00 in   Overcast
9:53 AM 50.0 °F - 46.9 °F 89% 30.08 in 10.0 mi SSW 13.8 mph 21.9 mph 0.00 in   Mostly Cloudy
10:53 AM 52.0 °F - 48.9 °F 89% 30.08 in 10.0 mi South 18.4 mph 25.3 mph 0.00 in   Overcast
11:13 AM 53.6 °F - 48.2 °F 82% 30.08 in 10.0 mi South 17.3 mph - N/A   Overcast
11:53 AM 55.0 °F - 50.0 °F 83% 30.05 in 10.0 mi South 18.4 mph 26.5 mph 0.01 in   Overcast
12:53 PM 55.9 °F - 51.1 °F 84% 29.99 in 10.0 mi South 16.1 mph 25.3 mph 0.00 in   Overcast
1:53 PM 57.9 °F - 51.1 °F 78% 29.98 in 10.0 mi SSW 20.7 mph 29.9 mph N/A   Overcast
2:53 PM 57.0 °F - 51.1 °F 81% 29.97 in 10.0 mi SSW 16.1 mph 24.2 mph N/A   Mostly Cloudy
3:53 PM 55.9 °F - 51.1 °F 84% 29.97 in 10.0 mi South 17.3 mph - N/A   Scattered Clouds
4:05 PM 55.4 °F - 51.8 °F 88% 29.98 in 10.0 mi South 13.8 mph - N/A   Mostly Cloudy
4:29 PM 55.4 °F - 51.8 °F 88% 29.96 in 10.0 mi South 17.3 mph - N/A   Scattered Clouds
4:53 PM 55.9 °F - 51.1 °F 84% 29.96 in 10.0 mi South 15.0 mph - N/A   Scattered Clouds
5:05 PM 55.4 °F - 51.8 °F 88% 29.96 in 10.0 mi South 17.3 mph 24.2 mph N/A   Mostly Cloudy
5:53 PM 55.9 °F - 51.1 °F 84% 29.96 in 10.0 mi South 12.7 mph 23.0 mph N/A   Mostly Cloudy
6:23 PM 55.4 °F - 51.8 °F 88% 29.97 in 10.0 mi South 11.5 mph - N/A   Mostly Cloudy
6:53 PM 55.9 °F - 51.1 °F 84% 29.97 in 10.0 mi South 15.0 mph 23.0 mph N/A   Partly Cloudy
7:53 PM 55.9 °F - 52.0 °F 87% 29.96 in 10.0 mi South 13.8 mph - N/A   Scattered Clouds
8:53 PM 57.0 °F - 53.1 °F 87% 29.96 in 10.0 mi South 12.7 mph - N/A   Partly Cloudy
9:53 PM 57.0 °F - 53.1 °F 87% 29.96 in 10.0 mi SSE 8.1 mph - N/A   Mostly Cloudy
10:53 PM 57.9 °F - 54.0 °F 87% 29.96 in 10.0 mi South 11.5 mph 19.6 mph N/A   Partly Cloudy
11:53 PM 57.9 °F - 55.0 °F 90% 29.96 in 10.0 mi South 10.4 mph 19.6 mph N/A   Partly Cloudy